x

9440910 - Toke Point, Wa (tokw1) Weather Station

2:54 - Tue 25th Jul 2017 All times are PDT. -7 hours from GMT.

  • Wind
    2mph, 5mph gusts
  • Sea Temp 57°f
  • Air Temp 57°f
  • Sea Pressure 1016.8mb
  • 9440910 - Toke Point, Wa
  • 9440910 - Toke Point, Wa

More Historic Weather Station data

Upgrade to MSW Pro to gain access to the past 30 days of data for over 8000 Wavebouys and Weather Stations around the globe.

Join Pro

Comparision Forecast

View Surf forecast
   
mar. 07/25 2:54 2 5 mph 1016.8mb 57f 57f
2:48 1 3 mph 1016.7mb 57f 57f
2:42 1 2 mph 1016.6mb 57f 57f
2:36 2 3 mph 1016.5mb 57f 57f
2:30 2 5 mph 1016.5mb 58f 57f
2:24 3 5 mph 1016.5mb 58f 57f
2:18 3 6 mph 1016.5mb 58f 57f
2:12 5 7 mph 1016.6mb 59f 57f
2:06 7 7 mph 1016.7mb 59f 57f
2:00 6 8 mph 1016.7mb 59f 58f
1:54 7 9 mph 1016.8mb 59f 58f
1:48 6 8 mph 1016.8mb 59f 58f
1:42 6 8 mph 1016.8mb 59f 58f
1:36 6 7 mph 1016.8mb 59f 58f
1:30 6 8 mph 1016.8mb 60f 58f
1:24 7 8 mph 1016.8mb 60f 58f
1:18 3 6 mph 1016.7mb 60f 58f
1:12 5 7 mph 1016.8mb 60f 58f
1:06 2 5 mph 1016.8mb 60f 58f
1:00 3 5 mph 1016.8mb 60f 58f
12:54  -  6 mph 1016.9mb 61f 58f
12:48 3 6 mph 1016.7mb 61f 58f
12:42  -  5 mph 1016.7mb 62f 58f
12:36 5 6 mph 1016.8mb 62f 58f
12:30 5 6 mph 1016.7mb 62f 58f
12:24 3 9 mph 1016.7mb 63f 58f
12:18 5 8 mph 1016.6mb 63f 58f
12:12 5 6 mph 1016.7mb 63f 58f
12:06 3 5 mph 1016.6mb 63f 58f
12:00 5 6 mph 1016.6mb 64f 58f
lun. 07/24 11:54 5 8 mph 1016.7mb 64f 58f
11:48 6 8 mph 1016.6mb - -
11:42 5 8 mph 1016.5mb - -
11:36 5 7 mph 1016.5mb - -
11:30 7 8 mph 1016.5mb 64f 58f
11:24 6 8 mph 1016.5mb 64f 58f
11:18 6 8 mph 1016.5mb 65f 58f
11:12 6 8 mph 1016.5mb 65f 58f
11:06 6 7 mph 1016.5mb 65f 58f
11:00 5 6 mph 1016.6mb 65f 57f
10:54 5 6 mph 1016.5mb 65f 57f
10:48 5 6 mph 1016.3mb 65f 57f
10:42 3 6 mph 1016.3mb 66f 57f
10:36 2 3 mph 1016.3mb 66f 57f
10:30 3 3 mph 1016.3mb 66f 57f
10:24 3 5 mph 1016.3mb 67f 57f
10:18 2 3 mph 1016.2mb 66f 58f
10:12 1 5 mph 1016.1mb 66f 58f
10:06 2 5 mph 1016.1mb 66f 58f
10:00 2 3 mph 1016mb 66f 58f
9:54 2 5 mph 1016mb 66f 58f
9:48 3 5 mph 1016mb 65f 57f
9:42 3 6 mph 1015.9mb 65f 58f
9:36 5 6 mph 1015.8mb 65f 58f
9:30 5 7 mph 1015.7mb 65f 58f
9:24 6 8 mph 1015.7mb 65f 58f
9:18 6 7 mph 1015.7mb 65f 58f
9:12 6 7 mph 1015.7mb 65f 58f
9:06 6 6 mph 1015.7mb 65f 58f
9:00 2 6 mph 1015.7mb 65f 59f
8:54 5 6 mph 1015.6mb 65f 59f
8:48 6 9 mph 1015.6mb 65f 60f
8:42 6 8 mph 1015.6mb 65f 60f
8:36 6 7 mph 1015.6mb 65f 60f
8:30 5 8 mph 1015.6mb 65f 61f
8:24 8 9 mph 1015.5mb 65f 61f
8:18 6 9 mph 1015.5mb 65f 62f
8:12 6 9 mph 1015.3mb 65f 62f
8:06 8 11 mph 1015.3mb 65f 62f
8:00 8 14 mph 1015.3mb 65f 62f
7:54 8 10 mph 1015.3mb 65f 62f
7:48 8 16 mph 1015.3mb 65f 63f
7:42 11 15 mph 1015.2mb 65f 63f
7:36 9 11 mph 1015.2mb 65f 63f
7:30 9 18 mph 1015.2mb 65f 63f
7:24 10 20 mph 1015.1mb 65f 64f
7:18 13 18 mph 1015.1mb 65f 64f
7:12 13 17 mph 1015.1mb 65f 64f
7:06 11 15 mph 1015mb 65f 64f
7:00 10 18 mph 1015mb 65f 65f
6:48 14 16 mph 1015.1mb 65f 64f
6:42 14 20 mph 1015.1mb 64f 65f
6:36 11 14 mph 1015.1mb 64f 64f
6:30 14 21 mph 1015.1mb 64f 64f
6:24 18 21 mph 1015.1mb 64f 64f
6:18 14 20 mph 1015mb 64f 65f
6:12 15 17 mph 1015.1mb 64f 65f
6:06 14 15 mph 1015.1mb 64f 66f
6:00 13 16 mph 1015.1mb 64f 66f
5:54 9 13 mph 1015.2mb 64f 66f
5:48 10 15 mph - - -
5:42 13 15 mph 1015.1mb 64f 66f
5:36 9 13 mph 1015.1mb 64f 67f
5:30 11 15 mph 1015.1mb 63f 67f
5:24 11 14 mph 1015.2mb 63f 67f
5:18 15 17 mph 1015.3mb 63f 66f
5:12 11 14 mph 1015.3mb 63f 67f
5:06 10 16 mph 1015.3mb 62f 67f
5:00 13 20 mph 1015.2mb 61f 66f
4:54 15 21 mph 1015.2mb 60f 66f
4:48 15 18 mph 1015.3mb 59f 66f
4:42 13 16 mph 1015.4mb 61f 66f
4:36 14 16 mph 1015.4mb 61f 66f
4:30 14 20 mph 1015.4mb 60f 66f
4:24 15 18 mph 1015.4mb 59f 66f
4:18 15 20 mph 1015.4mb 58f 66f
4:12 17 20 mph 1015.5mb 57f 65f
4:06 15 17 mph 1015.5mb 57f 66f
4:00 16 18 mph 1015.5mb 57f 66f
3:54 17 20 mph 1015.6mb 57f 66f
3:48 15 17 mph 1015.6mb 57f 66f
3:42 14 15 mph 1015.7mb 57f 66f
3:36 14 16 mph 1015.8mb 57f 67f
3:30 14 17 mph 1015.8mb 57f 66f
3:24 14 16 mph 1015.9mb 57f 66f
3:18 11 14 mph 1015.9mb 57f 66f
3:12 13 15 mph 1016mb 57f 66f
3:06 14 16 mph 1015.9mb 57f 66f
3:00 14 16 mph 1016mb 58f 66f
2:48 14 16 mph 1016.1mb 58f 66f
2:42 15 17 mph 1016.1mb 58f 66f
2:36 14 17 mph 1016.1mb 58f 66f
2:30 14 17 mph 1016.1mb 59f 66f
2:24 13 15 mph 1016.1mb 59f 67f
2:18 14 15 mph 1016.2mb 59f 67f
2:12 11 14 mph 1016.3mb 59f 67f
2:06 10 14 mph 1016.4mb 59f 67f
2:00 13 14 mph 1016.3mb 60f 66f
1:54 11 14 mph 1016.4mb 60f 66f
1:48 13 14 mph 1016.3mb 61f 66f
1:42 13 15 mph 1016.4mb 61f 67f
1:36 14 16 mph 1016.4mb 62f 67f
1:30 14 17 mph 1016.4mb 63f 66f
1:24 15 17 mph 1016.4mb 64f 66f
1:18 14 17 mph 1016.4mb 64f 67f
1:12 14 16 mph 1016.5mb 65f 67f
1:06 13 14 mph 1016.5mb 65f 67f
1:00 10 13 mph 1016.5mb 65f 67f
12:54 10 13 mph 1016.6mb 65f 67f
12:48 10 13 mph 1016.6mb 65f 67f
12:42 9 11 mph 1016.6mb 65f 67f
12:36 7 16 mph 1016.7mb 65f 68f
12:30 11 15 mph 1016.6mb 65f 66f
12:24 8 14 mph 1016.7mb 65f 67f
12:18 10 13 mph 1016.6mb 65f 67f
12:12 10 14 mph 1016.6mb 65f 67f
12:06 13 15 mph 1016.7mb 66f 66f
12:00 13 16 mph 1016.7mb 66f 67f
11:54 11 15 mph 1016.7mb 66f 66f
11:48 14 16 mph 1016.8mb 66f 65f
11:42 14 16 mph 1016.8mb 66f 65f
11:36 10 15 mph 1016.9mb 66f 66f
11:30 13 14 mph 1016.9mb 66f 65f
11:24 10 14 mph 1017mb 66f 66f
11:18 9 13 mph 1017.1mb 66f 66f
11:12 8 11 mph 1017.1mb 65f 65f
11:06 7 10 mph 1017.1mb 65f 66f
11:00 5 7 mph 1017.1mb 65f 66f
10:54  -  2 mph 1017.2mb 65f 67f
10:48 1 5 mph 1017.2mb 65f 66f
10:42 2 6 mph 1017.2mb 64f 64f
10:36 5 6 mph 1017.3mb 64f 63f
10:30 5 7 mph 1017.4mb 63f 62f
10:24 6 7 mph 1017.5mb 63f 61f
10:18 6 7 mph 1017.5mb 64f 60f
10:12 5 6 mph 1017.5mb 64f 59f
10:06 5 8 mph 1017.6mb 64f 59f
10:00 5 6 mph 1017.6mb 64f 59f
9:54 2 3 mph 1017.7mb 64f 59f
9:48 1 2 mph 1017.6mb 64f 59f
9:42  -  2 mph 1017.7mb 63f 59f
9:36 2 3 mph 1017.7mb 61f 58f
9:30 2 3 mph 1017.7mb 57f 57f
9:24 2 3 mph 1017.8mb 57f 57f
9:18 2 5 mph 1017.8mb 57f 56f
9:12 2 3 mph 1017.8mb 57f 56f
9:06 2 3 mph 1017.9mb 57f 55f
9:00 2 5 mph 1017.9mb 57f 55f
8:54 3 5 mph 1018mb 57f 55f
8:48  -  3 mph 1018mb 57f 55f
8:42 1 2 mph 1017.9mb 56f 55f
8:36  -  2 mph 1018mb 56f 55f
8:30 1 3 mph 1018mb 56f 54f
8:24  -  2 mph 1018mb 56f 54f
8:18 2 5 mph 1018.1mb 56f 53f
8:12 3 5 mph 1018mb 56f 53f
8:06 3 5 mph 1018mb 56f 54f
8:00 5 6 mph 1018mb 56f 53f
7:54 6 6 mph 1018mb 56f 53f
7:48 6 6 mph 1017.9mb 57f 54f
7:42 6 7 mph 1017.9mb 57f 54f
7:36 6 7 mph 1017.9mb 58f 54f
7:30  -  3 mph 1017.9mb 59f 54f
7:24 3 3 mph 1017.9mb 61f 54f
7:18 3 5 mph 1017.8mb 62f 54f
7:12 2 6 mph 1017.8mb 63f 54f
7:06 5 6 mph 1017.9mb 63f 54f
7:00 3 5 mph 1017.9mb 63f 54f
6:54 2 3 mph 1017.9mb 63f 54f
6:48 2 3 mph 1017.8mb 63f 54f
6:42  -  3 mph 1017.7mb 63f 54f
6:36 2 5 mph 1017.7mb 63f 54f
6:30 2 5 mph 1017.7mb 63f 54f
6:24 3 6 mph 1017.7mb 63f 54f
6:18 5 6 mph 1017.8mb 63f 54f
6:12 3 6 mph 1017.7mb 63f 54f
6:06 3 6 mph 1017.6mb 63f 55f
6:00 5 6 mph 1017.5mb 63f 55f
5:54 3 6 mph 1017.4mb 63f 55f
5:48 3 6 mph 1017.4mb 63f 55f
5:42 5 6 mph 1017.4mb 62f 55f
5:36 5 6 mph 1017.4mb 62f 55f
5:30 5 7 mph 1017.4mb 63f 55f
5:24 5 6 mph 1017.4mb 63f 55f
5:18  -  3 mph 1017.3mb 63f 55f
5:12 2 3 mph 1017.4mb 63f 55f
5:06 2 3 mph 1017.4mb 63f 55f
5:00  -  5 mph 1017.4mb 63f 55f
4:54 3 5 mph 1017.4mb 63f 55f
4:48 3 6 mph 1017.4mb 63f 55f
4:42 2 6 mph 1017.4mb 63f 55f
4:36 2 5 mph 1017.4mb 63f 55f
4:30  -  6 mph 1017.4mb 63f 55f
4:24 5 6 mph 1017.4mb 62f 55f
4:18 5 5 mph 1017.4mb 62f 56f
4:12 2 6 mph 1017.4mb 62f 55f
4:06 5 6 mph 1017.4mb 62f 55f
4:00  -  2 mph 1017.4mb 62f 56f
3:54 1 2 mph 1017.4mb 62f 55f
3:48 1 5 mph 1017.4mb 62f 55f
3:42 2 5 mph 1017.3mb 62f 55f
3:36 2 3 mph 1017.3mb 62f 55f
3:30 3 5 mph 1017.3mb 62f 55f
3:24 3 5 mph 1017.3mb 61f 55f
3:18 1 5 mph 1017.3mb 60f 56f
3:12 2 6 mph 1017.4mb 60f 56f
3:06 3 6 mph 1017.4mb 60f 56f
3:00 5 6 mph 1017.4mb 60f 56f
2:54 5 6 mph 1017.4mb 60f 56f
2:48 6 6 mph 1017.5mb 60f 56f
2:42 5 6 mph 1017.5mb 60f 56f
2:36 2 6 mph 1017.5mb 59f 57f
2:30 2 3 mph 1017.5mb 59f 57f
2:24 2 5 mph 1017.5mb 59f 57f
2:18 2 3 mph 1017.5mb 59f 56f
2:12 3 6 mph 1017.5mb 59f 56f
2:06 6 6 mph 1017.5mb 59f 56f
2:00 5 7 mph 1017.5mb 58f 57f
1:54 5 7 mph 1017.6mb 59f 56f
1:48 6 7 mph 1017.7mb 59f 57f
1:42 5 7 mph 1017.6mb 59f 57f
1:36 5 6 mph 1017.5mb 59f 57f
1:30 3 5 mph 1017.6mb 60f 57f
1:24 3 7 mph 1017.6mb 60f 57f
1:18 3 6 mph 1017.6mb 61f 57f
1:12 3 5 mph 1017.5mb 61f 57f
1:06 5 8 mph 1017.5mb 62f 57f
1:00 6 7 mph 1017.5mb 62f 57f
12:54 5 6 mph 1017.5mb 62f 57f
12:48 5 7 mph 1017.4mb 63f 57f
12:42 5 7 mph 1017.4mb 63f 57f
12:36 6 8 mph 1017.5mb 63f 57f
12:30 5 8 mph 1017.5mb 63f 57f
12:24 6 10 mph 1017.5mb 63f 57f
12:18 6 8 mph 1017.6mb 64f 57f
12:12 6 9 mph 1017.6mb 64f 58f
12:06 7 8 mph 1017.6mb 64f 57f
12:00 6 8 mph 1017.7mb 64f 57f
dim. 07/23 11:54 5 9 mph 1017.7mb 64f 57f
11:48 6 8 mph 1017.6mb 64f 57f
11:42 6 9 mph 1017.7mb 65f 57f
11:36 6 9 mph 1017.6mb 65f 57f
11:30 6 7 mph 1017.6mb 65f 57f
11:24 5 7 mph 1017.6mb 66f 57f
11:18 6 8 mph 1017.6mb 66f 57f
11:12 5 6 mph 1017.7mb 66f 57f
11:06 3 5 mph 1017.7mb 66f 58f
11:00 2 5 mph 1017.7mb 66f 57f
10:54 3 5 mph 1017.7mb 66f 57f
10:48 2 5 mph 1017.7mb 66f -
10:42 3 6 mph 1017.7mb 66f -
10:36 3 6 mph 1017.8mb 66f -
10:30 3 6 mph 1017.8mb 66f 58f
10:24 3 6 mph 1017.9mb 66f 58f
10:18 6 9 mph 1017.9mb 66f 58f
10:12 6 8 mph 1017.9mb 66f 58f
10:06 5 6 mph 1017.8mb 66f 58f
10:00 5 9 mph 1017.9mb 66f 58f
9:54 8 10 mph 1017.9mb 66f 58f
9:48 8 10 mph 1017.9mb 66f 58f
9:42 8 9 mph 1017.9mb 66f 58f
9:36 7 9 mph 1017.9mb 66f 58f
9:30 8 15 mph 1017.9mb 66f 58f
9:24 9 13 mph 1017.9mb 66f 58f
9:18 10 14 mph 1017.8mb 66f 58f
9:12 9 13 mph 1017.8mb 67f 58f
9:06 8 13 mph 1017.8mb 67f 59f
9:00 10 15 mph 1017.7mb 67f 59f
8:54 11 17 mph 1017.7mb 67f 59f
8:48 10 21 mph 1017.8mb 67f 59f
8:42 10 20 mph 1017.7mb 67f 59f
8:36 11 17 mph 1017.6mb 67f 59f
8:30 13 16 mph 1017.6mb 67f 59f
8:24 14 18 mph 1017.7mb 67f 59f
8:18 11 18 mph 1017.7mb 67f 60f
8:12 14 21 mph 1017.7mb 67f 60f
8:06 13 16 mph 1017.7mb 68f 60f
8:00 13 22 mph 1017.7mb 68f 60f
7:54 13 20 mph 1017.8mb 68f 61f
7:48 16 21 mph 1017.8mb 68f 60f
7:42 17 22 mph 1017.8mb 67f 60f
7:36 18 25 mph 1017.9mb 67f 61f
7:30 16 23 mph 1017.9mb 67f 61f
7:24 15 24 mph 1017.9mb 67f 61f
7:18 14 17 mph 1018mb 67f 61f
7:12 11 16 mph 1017.9mb 67f 61f
7:06 14 20 mph 1017.9mb 67f 61f
7:00 10 18 mph 1017.9mb 67f 62f
6:54 15 21 mph 1017.9mb 67f 61f
6:48 14 22 mph - - -
6:42 14 23 mph 1017.9mb 67f 61f
6:36 16 24 mph 1017.8mb 67f 61f
6:30 21 23 mph 1017.9mb 67f 61f
6:24 13 20 mph 1018mb 67f 62f
6:18 16 21 mph 1018.1mb 67f 62f
6:12 18 23 mph 1018.1mb 67f 62f
6:06 14 20 mph 1018.1mb 67f 62f
6:00 14 18 mph 1018.2mb 67f 62f
5:54 17 21 mph 1018.3mb 67f 62f
5:48 16 22 mph 1018.3mb 67f 62f
5:42 14 23 mph 1018.3mb 67f 62f
5:36 17 20 mph 1018.3mb 67f 62f
5:30 17 24 mph 1018.3mb 67f 62f
5:24 20 24 mph 1018.3mb 67f 62f
5:18 17 24 mph 1018.4mb 67f 63f
5:12 18 25 mph 1018.3mb 67f 62f
5:06 20 23 mph 1018.4mb 67f 62f
5:00 23 26 mph 1018.5mb 67f 62f
4:54 17 22 mph 1018.6mb 67f 63f
4:48 18 28 mph 1018.7mb 66f 63f
4:42 22 28 mph 1018.5mb 66f 62f
4:36 21 26 mph 1018.6mb 66f 63f
4:30 21 25 mph 1018.6mb 66f 63f
4:24 20 25 mph 1018.6mb 66f 62f
4:00 16 29 mph 1018.7mb 65f 63f
3:54 17 23 mph 1018.8mb 65f 62f
3:48 18 25 mph 1018.8mb 64f 62f
3:42 18 25 mph 1019mb 63f 62f
3:36 21 24 mph 1019mb 62f 62f
3:30 14 23 mph 1019.1mb 63f 63f
3:24 18 23 mph 1019.1mb 63f 62f
3:18 16 22 mph 1019.2mb 63f 62f
3:12 20 25 mph 1019.3mb 63f 62f
3:06 14 21 mph 1019.3mb 63f 63f
3:00 18 24 mph 1019.2mb 63f 62f
2:54 16 23 mph 1019.2mb 63f 62f
2:48 15 22 mph 1019.2mb 63f 63f
2:42 20 25 mph 1019.2mb 63f 63f
2:36 20 24 mph 1019.2mb 64f 63f
2:30 16 22 mph 1019.2mb 64f 63f
2:24 16 23 mph 1019.3mb 64f 63f
2:18 18 25 mph 1019.3mb 65f 63f
2:12 16 20 mph 1019.3mb 65f 63f
2:06 18 23 mph 1019.4mb 65f 63f
2:00 17 23 mph 1019.4mb 65f 63f
1:54 20 23 mph 1019.4mb 65f 63f
1:48 11 18 mph 1019.4mb 66f 64f
1:42 13 18 mph 1019.5mb 66f 64f
1:36 17 21 mph 1019.5mb 66f 63f
1:30 17 21 mph 1019.5mb 66f 63f
1:24 18 23 mph 1019.5mb 66f 63f
1:18 14 20 mph 1019.5mb 66f 64f
1:12 16 18 mph 1019.5mb 66f 64f
1:06 14 20 mph 1019.5mb 66f 64f
1:00 15 17 mph 1019.6mb 66f 64f
12:54 13 17 mph 1019.6mb 66f 64f
12:48 16 20 mph 1019.6mb 66f 63f
12:42 14 18 mph 1019.7mb 66f 63f
12:36 16 21 mph 1019.8mb 66f 63f
12:30 13 16 mph 1019.8mb 66f 63f
12:24 13 20 mph 1019.8mb 66f 63f
12:18 14 17 mph 1019.9mb 66f 63f
12:12 14 22 mph 1019.9mb 66f 63f
12:06 16 22 mph 1019.9mb 66f 62f
12:00 16 21 mph 1019.9mb 66f 63f
11:54 16 22 mph 1020mb 66f 62f
11:48 21 23 mph 1020mb 66f 62f
11:42 18 24 mph 1020mb 66f 62f
11:36 22 28 mph 1020mb 66f 62f
11:30 17 22 mph 1020mb 66f 62f
11:24 20 23 mph 1020.1mb 66f 62f
11:18 21 24 mph 1020.1mb 66f 62f
11:12 20 24 mph 1020.1mb 66f 62f
11:06 21 25 mph 1020.2mb 66f 62f
11:00 20 25 mph 1020.2mb 66f 62f
10:54 17 22 mph 1020.2mb 66f 62f
10:48 21 26 mph 1020.1mb 66f 61f
10:42 20 25 mph 1020.1mb 66f 62f
10:36 20 25 mph 1020.1mb 66f 61f
10:30 23 28 mph 1020mb 66f 61f
10:24 20 22 mph 1020mb 67f 61f
10:18 21 25 mph 1020mb 67f 61f
10:12 20 28 mph 1020mb 66f 61f
10:06 23 26 mph 1019.9mb 67f 61f
10:00 21 25 mph 1019.9mb 67f 61f
9:54 18 22 mph 1020mb 66f 61f
9:48 21 28 mph 1020mb 66f 61f
9:42 21 28 mph 1020mb 66f 61f
9:36 20 25 mph 1020mb 66f 60f
9:30 20 24 mph 1020mb 67f 60f
9:24 20 26 mph 1020mb 67f 60f
9:18 18 24 mph 1020mb 67f 60f
9:12 18 22 mph 1020mb 67f 60f
9:06 21 25 mph 1020mb 67f 60f
9:00 18 22 mph 1020mb 67f 60f
8:54 20 24 mph 1020mb 66f 60f
8:48 18 21 mph 1020mb 66f 60f
8:42 22 28 mph 1019.9mb 60f 59f
8:36 20 28 mph 1019.9mb 59f 59f
8:30 18 24 mph 1020mb 58f 59f
8:24 21 26 mph 1020mb 58f 59f
8:18 18 23 mph 1020mb 58f 59f
8:12 15 21 mph 1020mb 58f 59f
8:06 16 22 mph 1020.1mb 58f 59f
8:00 17 22 mph 1020mb 58f 58f
7:54 15 18 mph 1020mb 58f 58f
7:48 13 20 mph 1020.1mb 58f 58f
7:42 17 24 mph 1020.1mb 58f 58f
7:36 16 23 mph 1020mb 58f 58f
7:30 14 18 mph 1020.1mb 58f 59f
7:24 13 16 mph 1020mb 58f 59f
7:18 13 16 mph 1019.9mb 58f 59f
7:12 13 16 mph 1019.8mb 58f 59f
7:06 14 20 mph 1019.6mb 58f 59f
7:00 16 20 mph 1019.6mb 59f 59f
6:54 11 17 mph 1019.6mb 60f 59f
6:48 14 21 mph 1019.6mb 62f 59f
6:42 14 16 mph 1019.6mb 64f 59f
6:36 14 18 mph 1019.6mb 65f 59f
6:30 16 20 mph 1019.5mb 65f 59f
6:24 11 17 mph 1019.5mb 65f 59f
6:18 14 18 mph 1019.5mb 65f 59f
6:12 14 18 mph 1019.5mb 65f 58f
6:06 15 20 mph 1019.5mb 65f 58f
6:00 14 18 mph 1019.4mb 65f 58f
5:54 15 20 mph 1019.3mb 65f 58f
5:48 15 18 mph 1019.3mb 65f 58f
5:42 14 16 mph 1019.3mb 65f 58f
5:36 10 15 mph 1019.3mb 65f 58f
5:30 13 15 mph 1019.3mb 65f 58f
5:24 10 14 mph 1019.3mb 65f 58f
5:18 9 13 mph 1019.3mb 65f 59f
5:12 10 15 mph 1019.3mb 65f 59f
5:06 11 14 mph 1019.3mb 65f 59f
5:00 9 13 mph 1019.3mb 65f 59f
4:54 9 13 mph 1019.3mb 65f 59f
4:48 9 11 mph 1019.4mb 65f 59f
4:42 8 11 mph 1019.4mb 65f 59f
4:36 11 16 mph 1019.4mb 65f 59f
4:30 13 15 mph 1019.5mb 65f 59f
4:24 13 15 mph 1019.5mb 65f 59f
4:18 11 14 mph 1019.5mb 65f 59f
4:12 11 17 mph 1019.5mb 65f 59f
4:06 13 15 mph 1019.5mb 65f 60f
4:00 11 17 mph 1019.5mb 65f 60f
3:54 11 17 mph 1019.4mb 65f 60f
3:48 13 18 mph 1019.4mb 65f 60f
3:42 10 16 mph 1019.4mb 65f 60f
3:36 13 18 mph 1019.3mb 65f 60f
3:30 14 22 mph 1019.3mb 65f 60f
3:24 11 23 mph 1019.3mb 65f 60f
3:18 14 17 mph 1019.4mb 65f 60f
3:12 14 21 mph 1019.4mb 65f 60f
3:06 13 18 mph 1019.4mb 65f 60f
3:00 15 20 mph 1019.4mb 65f 60f
2:54 14 20 mph 1019.4mb 65f 60f
2:48 11 18 mph 1019.4mb 64f 60f
2:42 10 20 mph 1019.5mb 64f 60f
2:36 9 14 mph 1019.5mb 64f 60f
2:30 14 17 mph 1019.5mb 64f 59f
2:24 10 14 mph 1019.5mb 64f 59f
2:18 10 16 mph 1019.6mb 64f 59f
2:12 9 15 mph 1019.6mb 64f 59f
2:06 7 11 mph 1019.7mb 64f 59f
2:00 8 14 mph 1019.7mb 64f 59f
1:54 9 13 mph 1019.8mb 65f 59f
1:48 7 13 mph 1019.9mb 65f 59f
1:42 9 11 mph 1019.9mb 65f 59f
1:36 9 17 mph 1019.9mb 64f 59f
1:30 11 15 mph 1020mb 64f 59f
1:24 11 16 mph 1020mb 65f 59f
1:18 10 16 mph 1020.1mb 65f 59f
1:12 8 13 mph 1020.1mb 65f 59f
1:06 9 14 mph 1020.2mb 66f 59f
1:00 11 15 mph 1020.2mb 66f 59f
12:54 10 15 mph 1020.2mb 66f 59f
12:48 10 14 mph 1020.3mb 66f 60f
12:42 9 11 mph 1020.3mb 66f 60f
12:36 10 16 mph 1020.3mb 66f 60f
12:30 10 14 mph 1020.3mb 66f 60f
12:24 6 11 mph 1020.4mb 66f 60f
12:18 10 13 mph 1020.3mb 66f 60f
12:12 9 15 mph 1020.3mb 66f 60f
12:06 11 14 mph 1020.4mb 66f 60f
12:00 8 14 mph 1020.4mb 67f 60f
sam. 07/22 11:54 9 13 mph 1020.4mb 67f 60f
11:48 10 14 mph 1020.4mb 67f 60f
11:42 9 14 mph 1020.5mb - -
11:36 9 11 mph 1020.5mb - -
11:30 8 15 mph 1020.6mb 67f 60f
11:24 9 17 mph 1020.6mb 67f 60f
11:18 10 14 mph 1020.6mb 67f 60f
11:12 10 14 mph 1020.6mb 67f 60f
11:06 8 14 mph 1020.6mb 67f 60f
11:00 9 11 mph 1020.6mb 67f 60f
10:54 10 15 mph 1020.6mb 66f 60f
10:48 13 16 mph 1020.5mb 66f -
10:42 7 13 mph 1020.6mb 66f -
10:36 9 11 mph 1020.7mb 66f -
10:30 7 11 mph 1020.7mb 66f 60f
10:24 8 10 mph 1020.7mb 66f 60f
10:18 7 13 mph 1020.7mb 66f 60f
10:12 9 14 mph 1020.8mb 66f 60f
10:06 11 15 mph 1020.8mb 66f 61f
10:00 9 14 mph 1020.8mb 66f 61f
9:54 8 14 mph 1020.8mb 66f 62f
9:48 7 10 mph 1020.8mb 66f 62f
9:42 6 8 mph 1020.8mb 67f 62f
9:36 8 11 mph 1020.8mb 67f 62f
9:30 9 14 mph 1020.7mb 68f 62f
9:24 8 10 mph 1020.6mb 69f 62f
9:18 8 11 mph 1020.5mb 69f 63f
9:12 8 14 mph 1020.5mb 69f 63f
9:06 8 15 mph 1020.5mb 69f 63f
9:00 9 13 mph 1020.4mb 69f 63f
8:54 9 13 mph 1020.4mb 69f 64f
8:48 8 11 mph 1020.4mb 69f 64f
8:42 9 11 mph 1020.4mb 69f 64f
8:36 10 17 mph 1020.4mb 68f 64f
8:30 14 20 mph 1020.3mb 68f 64f
8:24 14 17 mph 1020.3mb 68f 65f
8:18 11 16 mph 1020.3mb 68f 65f
8:12 11 15 mph 1020.3mb 69f 65f
8:06 13 16 mph 1020.3mb 69f 65f
8:00 13 17 mph 1020.3mb 69f 65f
7:54 14 16 mph 1020.3mb 69f 65f
7:48 11 20 mph 1020.3mb 69f 66f
7:42 9 13 mph 1020.2mb 69f 66f
7:36 11 14 mph 1020.2mb 69f 66f
7:30 11 14 mph 1020.2mb 69f 66f
7:24 13 16 mph 1020.2mb 69f 67f
7:18 15 18 mph 1020.2mb 69f 67f
7:12 15 17 mph 1020.2mb 69f 67f
7:06 13 15 mph 1020.2mb 69f 68f
7:00 10 14 mph 1020.2mb 69f 69f
6:54 11 14 mph 1020.2mb 69f 69f
6:48 10 15 mph 1020.2mb 69f 69f
6:42 11 15 mph 1020.2mb 69f 69f
6:36 11 15 mph 1020.3mb 69f 69f
6:30 13 17 mph 1020.3mb 69f 69f
6:24 14 16 mph 1020.3mb 69f 69f
6:18 10 14 mph 1020.3mb 69f 70f
6:12 11 15 mph 1020.3mb 69f 70f
6:06 10 13 mph 1020.4mb 69f 70f
6:00 13 15 mph 1020.5mb 69f 70f
5:54 11 14 mph 1020.5mb 69f 70f
5:48 10 14 mph 1020.6mb 69f 70f
5:42 9 14 mph 1020.6mb 69f 71f
5:36 13 15 mph 1020.6mb 68f 70f
5:30 11 14 mph 1020.6mb 68f 70f
5:24 11 14 mph 1020.6mb 68f 71f
5:18 11 14 mph 1020.7mb 68f 70f
5:12 10 14 mph 1020.8mb 68f 70f
5:06 10 14 mph 1020.8mb 68f 70f
5:00 11 13 mph 1020.9mb 68f 71f
4:54 10 13 mph 1021mb 68f 70f
4:48 10 14 mph - - -
4:42 10 13 mph 1021.1mb 68f 70f
4:36 8 10 mph 1021.2mb 67f 71f
4:30 8 13 mph 1021.2mb 67f 71f
4:24 9 14 mph 1021.3mb 67f 70f
4:00 9 13 mph 1021.4mb 67f 70f
3:54 10 13 mph 1021.5mb 67f 69f
3:48 10 14 mph 1021.6mb 66f 68f
3:42 8 13 mph 1021.6mb 66f 69f
3:36 13 14 mph 1021.7mb 66f 68f
3:30 10 14 mph 1021.7mb 66f 68f
3:24 13 15 mph 1021.7mb 66f 68f
3:18 13 14 mph 1021.8mb 66f 68f
3:12 10 14 mph 1021.8mb 65f 68f
3:06 13 14 mph 1021.9mb 65f 68f
3:00 11 14 mph 1022mb 65f 68f
2:54 11 14 mph 1022mb 65f 68f
2:48 13 15 mph 1022mb 65f 68f
2:42 9 15 mph 1022mb 64f 67f
2:36 11 15 mph 1022mb 64f 67f
2:30 13 14 mph 1022.1mb 64f 66f
2:24 11 14 mph 1022.2mb 64f 66f
2:18 11 14 mph 1022.2mb 64f 66f
2:12 11 15 mph 1022.2mb 65f 66f
2:06 10 14 mph 1022.3mb 65f 66f
2:00 10 13 mph 1022.3mb 65f 66f
1:54 10 14 mph 1022.4mb 65f 67f
1:48 9 14 mph 1022.4mb 65f 67f
1:42 10 14 mph 1022.4mb 65f 67f
1:36 8 11 mph 1022.5mb 65f 67f
1:30 9 11 mph 1022.5mb 65f 67f
1:24 8 10 mph 1022.5mb 66f 67f
1:18 7 10 mph 1022.5mb 66f 67f
1:12 7 9 mph 1022.5mb 65f 67f
1:06 7 9 mph 1022.5mb 65f 67f
1:00 6 9 mph 1022.6mb 65f 67f
12:54 8 10 mph 1022.6mb 65f 66f
12:48 7 10 mph 1022.7mb 65f 67f
12:42 8 10 mph 1022.7mb 65f 67f
12:36 9 10 mph 1022.6mb 65f 66f
12:30 8 9 mph 1022.7mb 65f 67f
12:24 8 10 mph 1022.7mb 65f 66f
12:18 7 9 mph 1022.7mb 65f 66f
12:12 6 8 mph 1022.7mb 65f 66f
12:06 6 7 mph 1022.8mb 65f 66f
12:00 5 7 mph 1022.8mb 65f 66f
11:54 3 6 mph 1022.9mb 65f 66f
11:48 3 6 mph 1022.9mb 65f 66f
11:42 5 6 mph 1022.8mb 65f 65f
11:36 5 6 mph 1022.8mb 65f 65f
11:30 3 6 mph 1022.8mb 65f 66f
11:24 3 6 mph 1022.8mb 65f 65f
11:18 3 6 mph 1022.7mb 65f 65f
11:12 5 6 mph 1022.7mb 65f 65f
11:06 3 6 mph 1022.7mb 65f 65f
11:00 3 6 mph 1022.7mb 65f 65f
10:54 3 6 mph 1022.6mb 65f 65f
10:48 5 6 mph 1022.7mb 66f 65f
10:42 5 6 mph 1022.7mb 66f 65f
10:36 5 7 mph 1022.7mb 66f 65f
10:30 5 6 mph 1022.7mb 66f 65f
10:24 5 7 mph 1022.7mb 65f 65f
10:18 5 6 mph 1022.7mb 65f 65f
10:12 2 5 mph 1022.7mb 65f 65f
10:06 3 6 mph 1022.7mb 65f 65f
10:00  -  5 mph 1022.7mb 65f 65f
9:54 3 6 mph 1022.7mb 65f 65f
9:48 3 6 mph 1022.7mb 64f 65f
9:42 2 3 mph 1022.7mb 65f 65f
9:36 2 3 mph 1022.7mb 65f 64f
9:30 1 5 mph 1022.7mb 65f 64f
9:24 3 5 mph 1022.7mb 64f 64f
9:18 2 3 mph 1022.7mb 64f 65f
9:12 1 3 mph 1022.7mb 64f 64f
9:06 2 5 mph 1022.7mb 65f 64f
9:00 1 3 mph 1022.7mb 65f 64f
8:54 5 6 mph 1022.8mb 65f 64f
8:48 3 5 mph 1022.8mb 65f 64f
8:42 2 5 mph 1022.8mb 64f 64f
8:36 3 6 mph 1022.7mb 64f 64f
8:30 2 3 mph 1022.7mb 65f 63f
8:24 3 5 mph 1022.7mb 65f 63f
8:18 3 6 mph 1022.6mb 65f 63f
8:12 6 7 mph 1022.6mb 65f 63f
8:06 3 6 mph 1022.5mb 65f 63f
8:00 5 6 mph 1022.5mb 65f 63f
7:54 3 5 mph 1022.5mb 65f 63f
7:48 1 2 mph 1022.5mb 65f 63f
7:42 1 3 mph 1022.4mb 65f 63f
7:36 2 5 mph 1022.4mb 64f 63f
7:30 3 5 mph 1022.3mb 64f 63f
7:24 3 3 mph 1022.3mb 62f 63f
7:18 3 5 mph 1022.3mb 61f 63f
7:12 3 5 mph 1022.2mb 61f 63f
7:06 3 5 mph 1022.2mb 61f 63f
7:00 3 5 mph 1022.2mb 61f 63f
6:54 3 5 mph 1022.1mb 61f 63f
6:48 3 5 mph 1022mb 61f 63f
6:42 3 5 mph 1022mb 61f 63f
6:36 3 5 mph 1021.9mb 61f 63f
6:30 5 5 mph 1021.9mb 61f 63f
6:24 6 6 mph 1021.8mb 62f 63f
6:18 3 6 mph 1021.8mb 63f 63f
6:12 5 6 mph 1021.8mb 63f 63f
6:06 5 7 mph 1021.8mb 63f 63f
6:00 6 7 mph 1021.8mb 63f 63f
5:54 6 7 mph 1021.7mb 63f 63f
5:48 5 6 mph 1021.7mb 63f 63f
5:42 3 6 mph 1021.7mb 63f 63f
5:36 5 6 mph 1021.7mb 64f 63f
5:30 5 6 mph 1021.7mb 64f 63f
5:24 5 6 mph 1021.6mb 64f 63f
5:18 5 7 mph 1021.6mb 64f 63f
5:12 6 8 mph 1021.5mb 64f 63f
5:06 6 7 mph 1021.5mb 64f 63f
5:00 6 6 mph 1021.5mb 64f 63f
4:54 5 6 mph 1021.5mb 64f 63f
4:48 5 6 mph 1021.4mb 64f 63f
4:42 5 6 mph 1021.4mb 64f 63f
4:36 5 6 mph 1021.3mb 64f 63f
4:30 5 6 mph 1021.3mb 64f 63f
4:24 6 7 mph 1021.3mb 64f 63f
4:18 6 7 mph 1021.3mb 64f 63f
4:12 5 6 mph 1021.3mb 64f 63f
4:06 5 6 mph 1021.3mb 64f 63f
4:00 6 6 mph 1021.4mb 63f 63f
3:54 5 6 mph 1021.4mb 63f 63f
3:48 5 6 mph 1021.5mb 63f 63f
3:42 5 6 mph 1021.5mb 63f 63f
3:36 5 6 mph 1021.4mb 64f 62f
3:30 5 5 mph 1021.4mb 64f 62f
3:24 5 6 mph 1021.4mb 64f 62f
3:18 3 5 mph 1021.4mb 64f 63f
3:12 3 5 mph 1021.4mb 64f 62f
3:06 3 6 mph 1021.3mb 64f 62f
3:00 5 5 mph 1021.3mb 63f 62f
2:54 3 5 mph 1021.3mb 63f 62f
2:48 3 5 mph 1021.3mb 63f 62f
2:42 3 5 mph 1021.4mb 63f 62f
2:36 3 5 mph 1021.4mb 63f 62f
2:30 3 3 mph 1021.4mb 63f 62f
2:24 2 5 mph 1021.4mb 63f 62f
2:18 5 5 mph 1021.3mb 63f 62f
2:12 3 5 mph 1021.4mb 63f 62f
2:06 3 5 mph 1021.4mb 63f 61f
2:00 3 3 mph 1021.5mb 63f 61f
1:54 3 5 mph 1021.5mb 63f 61f
1:48 3 3 mph 1021.6mb 63f 61f
1:42 3 3 mph 1021.6mb 63f 61f
1:36 2 3 mph 1021.6mb 63f 61f
1:30 3 3 mph 1021.6mb 63f 61f
1:24 3 3 mph 1021.6mb 63f 61f
1:18 2 3 mph 1021.6mb 63f 61f
1:12 3 3 mph 1021.6mb 64f 61f
1:06 3 3 mph 1021.6mb 64f 61f
1:00 3 3 mph 1021.6mb 64f 61f
12:54 2 2 mph 1021.6mb 63f 61f
12:48 1 2 mph 1021.6mb 64f 61f
12:42 2 2 mph 1021.6mb 64f 62f
12:36 2 2 mph 1021.6mb 64f 62f
12:30 1 3 mph 1021.6mb 64f 62f
12:24 2 3 mph 1021.6mb 65f 61f
12:18 3 3 mph 1021.6mb 65f 61f
12:12 2 2 mph 1021.6mb 65f 61f
12:06 2 2 mph 1021.6mb 64f 61f
12:00 2 2 mph 1021.7mb 64f 62f
ven. 07/21 11:54 2 5 mph 1021.6mb 64f 62f
11:48 2 5 mph 1021.6mb 64f 62f
11:42 3 5 mph 1021.6mb 64f 62f
11:36 2 3 mph 1021.7mb 64f 62f
11:30 2 3 mph 1021.6mb 64f 62f
11:24 2 3 mph 1021.6mb 65f 62f
11:18  -  1 mph 1021.6mb 64f 62f
11:12 1 2 mph 1021.6mb 64f 62f
11:06 1 2 mph 1021.6mb 65f 62f
11:00 1 2 mph 1021.5mb 65f 62f
10:54 1 3 mph 1021.5mb 65f 62f
10:48 2 5 mph 1021.5mb 65f -
10:42 3 3 mph 1021.5mb 65f -
10:36 3 5 mph 1021.5mb 65f -
10:30 2 5 mph 1021.4mb 65f 62f
10:24 2 3 mph 1021.5mb 65f 62f
10:18 1 3 mph 1021.4mb 65f 62f
10:12 3 3 mph 1021.4mb 65f 62f
10:06 3 5 mph 1021.2mb 65f 62f
10:00 3 5 mph 1021.2mb 65f 62f
9:54 2 3 mph 1021.3mb 65f 62f
9:48 3 5 mph 1021.3mb 65f 62f
9:42 2 5 mph 1021.3mb 65f 62f
9:36 3 5 mph 1021.3mb 65f 62f
9:30 3 5 mph 1021.2mb 65f 62f
9:24 3 5 mph 1021.1mb 65f 62f
9:18 2 3 mph 1021mb 65f 62f
9:12 1 3 mph 1021mb 65f 62f
9:06 2 5 mph 1021mb 65f 62f
9:00 2 3 mph 1021mb 65f 62f
8:54 2 5 mph 1020.9mb 65f 62f
8:48 2 5 mph 1020.9mb 65f 62f
8:42 3 5 mph 1020.9mb 66f 63f
8:36 3 5 mph 1021mb 66f 63f
8:30 2 3 mph 1020.9mb 66f 63f
8:24 2 3 mph 1020.9mb 66f 63f
8:18 2 5 mph 1020.9mb 66f 63f
8:12 3 5 mph 1021mb 66f 63f
8:06 3 5 mph 1021mb 66f 64f
8:00 3 5 mph 1021mb 66f 64f
7:54 3 6 mph 1020.9mb 65f 64f
7:48 5 6 mph 1021mb 65f 64f
7:42 5 6 mph 1021mb 65f 64f
7:36 5 6 mph 1021mb 65f 63f
7:30 6 7 mph 1021mb 65f 63f
7:24 6 8 mph 1021.1mb 65f 63f
7:18 6 8 mph 1021.1mb 66f 64f
7:12 7 8 mph 1021.1mb 66f 64f
7:06 7 9 mph 1021mb 66f 65f
7:00 7 9 mph 1021.1mb 66f 64f
6:54 6 7 mph 1021mb 66f 64f
6:48 6 6 mph 1021.1mb 67f 64f
6:42 5 7 mph 1021.1mb 66f 64f
6:36 6 8 mph 1021.2mb 66f 64f
6:30 6 8 mph 1021.2mb 66f 64f
6:24 6 8 mph 1021.2mb 66f 64f
6:18 6 7 mph 1021.2mb 66f 64f
6:12 7 8 mph 1021.2mb 66f 64f
6:06 7 8 mph 1021.3mb 66f 64f
6:00 6 8 mph 1021.3mb 66f 64f
5:54 7 9 mph 1021.3mb 66f 65f
5:48 7 9 mph 1021.2mb 66f 64f
5:42 7 10 mph 1021.3mb 66f 64f
5:36 7 10 mph 1021.4mb 66f 64f
5:30 8 11 mph 1021.4mb 66f 64f
5:24 9 10 mph 1021.4mb 67f 64f
5:18 8 10 mph 1021.4mb 67f 64f
5:12 8 11 mph 1021.4mb 67f 65f
5:06 8 11 mph 1021.4mb 67f 64f
5:00 8 11 mph 1021.5mb 66f 64f
4:54 8 11 mph 1021.5mb 66f 64f
4:48 8 11 mph 1021.5mb 67f 64f
4:42 8 13 mph 1021.6mb 67f 65f
4:36 8 11 mph 1021.6mb 67f 64f
4:30 8 10 mph 1021.6mb 66f 65f
4:24 9 10 mph 1021.7mb 66f 64f
4:18 7 9 mph 1021.7mb 66f 64f
4:12 7 9 mph 1021.7mb 66f 64f
4:06 7 9 mph 1021.7mb 66f 64f
4:00 6 9 mph 1021.9mb 65f 64f
3:54 8 10 mph 1021.9mb 65f 64f
3:48 8 11 mph - - -
3:42 8 11 mph 1021.9mb 65f 64f
3:36 8 14 mph 1021.9mb 65f 64f
3:30 10 13 mph 1021.9mb 65f 64f
3:24 7 11 mph 1021.9mb 65f 64f
3:18 10 13 mph 1021.9mb 65f 63f
3:12 10 11 mph 1022mb 65f 63f
3:06 10 14 mph 1022mb 65f 63f
3:00 11 15 mph 1022mb 65f 62f
2:54 10 14 mph 1022mb 65f 63f
2:48 11 16 mph 1021.9mb 65f 63f
2:42 11 15 mph 1021.9mb 64f 63f
2:36 10 14 mph 1021.8mb 64f 63f
2:30 10 16 mph 1021.9mb 64f 63f
2:24 11 15 mph 1021.8mb 64f 63f
2:18 13 15 mph 1021.8mb 64f 63f
2:12 13 15 mph 1021.8mb 64f 63f
2:06 11 15 mph 1021.8mb 64f 63f
2:00 13 16 mph 1021.9mb 64f 62f
1:54 11 14 mph 1021.9mb 64f 63f
1:48 9 13 mph 1021.8mb 63f 64f
1:42 11 13 mph 1021.9mb 63f 63f
1:36 11 14 mph 1021.8mb 63f 63f
1:30 9 11 mph 1021.8mb 63f 63f
1:24 10 11 mph 1021.7mb 63f 63f
1:18 9 11 mph 1021.7mb 63f 63f
1:12 9 11 mph 1021.7mb 63f 63f
1:06 10 13 mph 1021.8mb 63f 63f
1:00 9 13 mph 1021.8mb 63f 63f
12:54 8 11 mph 1021.7mb 63f 63f
12:48 9 11 mph 1021.7mb 63f 62f
12:42 8 10 mph 1021.7mb 63f 63f
12:36 8 10 mph 1021.7mb 63f 64f
12:30 7 10 mph 1021.8mb 63f 64f
12:24 8 11 mph 1021.8mb 63f 63f
12:18 7 10 mph 1021.6mb 63f 63f
12:12 7 10 mph 1021.7mb 63f 63f
12:06 7 9 mph 1021.6mb 63f 63f
12:00 7 9 mph 1021.8mb 63f 62f
11:54 7 8 mph 1021.8mb 63f 62f
11:48 6 8 mph 1021.8mb 63f 63f
11:42 6 8 mph 1021.8mb 63f 62f
11:36 7 9 mph 1021.8mb 63f 62f
11:30 7 9 mph 1021.8mb 63f 62f
11:24 7 9 mph 1021.7mb 63f 62f
11:18 7 10 mph 1021.7mb 63f 62f
11:12 7 10 mph 1021.7mb 63f 62f
11:06 6 8 mph 1021.8mb 63f 62f